Find Starlink 31582

NORAD ID: 59545 Int'l Des: 2024-074 Owner: SPXS Country: US Constellation: starlink operational
LEOCIRCULAR

实时位置

正在加载3D地球...

关于 Starlink 31582

正在加载描述...

即将过境

Passes for default location (London). Set your location on the main map for personalized predictions.

高度历史

Loading altitude history...

两行轨道根数

1 59545U 24074M 26123.43761726 .00002872 00000-0 11388-3 0 9998
2 59545 42.9992 34.6505 0001002 285.1977 74.8764 15.27567002114388
Epoch: May 3, 2026 • Age: 21 hours

当前状态

高度 483.2 km
速度 7.63 km/s
星下点 -0.61°S, 127.27°W
发射日期 Apr 18, 2024
运行时间 2 years
类型 internet

技术详情

分类 Payload
质量 730.00 kg
干质量 700.00 kg
总质量 730.00 kg
长度 0.30 m
直径 4.10 m
跨度 29.00 m
形状 Box + pan
制造商 SPXS
平台类型 Starlink V2M
阶段状态 In Orbit
所有者/国家 SPXS/US

Most Searched